Wetbulb
45.54 45.84 46.04 46.04 46.09 46.29 46.55 46.57 46.68 46.59 46.62 46.43 46.43 46.64 46.74 46.94 46.96 45.40 42.38 44.27 39.45 32.99 36.54 40.72 40.44 36.74 37.50 36.79 31.49 34.61 34.54 35.52 33.49 28.79 28.12 26.87 25.07 32.05 32.03 35.23 33.67 31.83 31.02 30.50 32.23 30.35 27.01 45.28 45.52 39.81 41.66 44.79 47.50 47.33
46.11 46.48 46.80 46.96 46.80 46.98 46.93 46.82 46.84 46.93 46.71 46.59 46.82 46.68 46.89 47.30 47.09 46.64 40.88 44.44 44.45 39.74 38.40 43.87 43.99 43.56 43.42 42.51 39.01 37.52 36.21 36.45 36.64 32.06 30.74 30.05 26.43 26.54 30.44 27.59 37.66 31.93 36.46 33.83 35.37 34.44 43.45 45.89 46.79 47.49 48.18 46.53 47.46 46.91
46.54 46.11 46.13 46.09 46.22 46.25 46.40 46.38 46.32 46.20 46.32 46.59 46.78 47.03 47.23 47.30 47.34 46.36 41.77 42.91 42.26 38.12 37.08 39.45 39.49 44.91 48.03 47.01 45.95 36.81 38.21 42.04 41.13 40.47 36.60 34.64 29.69 32.36 29.25 29.48 33.58 36.64 42.02 37.27 37.67 40.98 42.44 44.55 47.97 48.52 49.08 47.67 48.78 49.72
45.83 45.81 46.04 46.20 46.04 45.88 46.02 45.70 45.40 45.49 45.79 46.25 46.39 46.52 46.98 47.22 47.27 46.40 41.66 43.50 41.37 38.71 32.69 37.14 46.52 43.62 47.45 47.33 46.79 45.84 44.37 44.82 44.49 42.56 36.03 32.23 30.01 37.10 29.83 34.51 34.46 37.48 40.26 39.21 38.13 41.59 44.16 45.24 45.71 46.86 48.19 48.94 48.99 49.80
45.86 45.79 45.93 46.04 45.73 45.81 45.70 45.06 44.74 45.67 45.95 46.08 46.32 46.22 47.12 47.42 47.06 45.24 43.98 43.21 42.73 39.00 33.26 36.68 43.18 45.73 46.67 46.44 45.60 45.57 44.15 43.03 41.43 38.07 34.90 31.88 36.41 36.20 35.89 37.19 34.15 38.94 38.42 36.21 34.29 42.11 42.73 43.80 45.21 48.22 47.19 46.84 47.84 48.42
45.82 45.73 45.91 45.72 45.52 45.57 45.47 45.26 45.81 45.74 45.30 45.64 46.61 46.75 47.12 46.70 46.23 43.18 38.21 43.14 43.83 44.19 36.85 32.44 42.83 42.10 43.65 44.46 43.37 43.16 43.12 41.31 41.23 36.31 34.19 39.43 41.89 38.35 33.09 32.29 38.86 40.20 42.09 41.50 39.87 43.80 45.19 45.50 46.27 47.17 46.94 47.39 47.95 47.64
45.71 45.55 45.87 45.75 45.59 45.45 45.45 45.37 45.45 45.84 46.20 46.36 46.54 46.50 46.27 45.95 44.05 39.42 36.15 41.63 46.09 43.96 36.76 33.12 34.84 41.60 42.71 41.60 39.47 39.23 41.36 39.55 39.01 37.48 35.07 37.41 38.63 41.04 33.05 30.82 35.97 38.02 39.55 41.94 42.27 44.28 41.88 43.39 42.15 44.59 45.71 45.48 45.80 46.23
45.42 45.15 45.55 45.77 45.63 45.43 45.26 45.39 45.58 45.86 45.86 45.24 45.59 45.55 45.66 46.18 45.60 41.85 43.31 46.69 47.23 42.33 38.91 28.71 32.73 37.04 39.18 34.70 33.50 37.75 35.84 37.57 37.25 36.14 37.14 37.91 39.82 38.67 33.97 32.91 34.84 36.50 38.24 39.66 39.35 43.24 43.19 44.30 44.23 43.61 43.84 43.58 42.83 42.46
44.90 45.20 45.18 45.32 45.19 45.21 45.35 45.40 45.38 45.14 45.48 45.52 45.44 45.55 44.45 43.07 39.68 41.74 46.52 47.11 46.96 40.46 29.79 24.45 24.19 27.01 37.78 36.05 34.59 34.50 36.27 30.35 36.63 29.05 34.51 37.64 35.10 27.05 29.10 31.38 32.52 34.67 35.21 36.60 39.46 39.80 41.44 41.21 42.05 41.34 41.40 41.39 39.99 37.09
44.63 44.56 44.45 44.56 44.68 44.91 45.01 45.28 45.44 45.59 44.99 44.23 43.69 39.20 34.13 40.40 45.91 45.32 41.39 37.60 35.46 36.52 33.90 26.87 31.80 28.24 33.69 34.00 32.28 29.98 26.70 28.13 30.08 32.51 37.71 30.93 27.48 32.13 30.63 32.74 33.18 32.65 34.42 36.69 36.25 34.93 35.74 36.85 37.84 35.73 34.96 34.96 34.23 31.84
44.29 44.30 44.37 44.61 44.66 44.65 44.83 44.72 44.85 44.81 45.78 41.76 37.03 35.78 40.51 44.48 41.34 37.19 30.44 30.53 31.17 28.54 31.80 31.51 32.34 28.95 35.28 26.15 30.28 33.42 32.55 29.41 24.53 29.52 28.85 27.29 23.27 26.89 30.97 31.17 31.20 31.48 33.41 33.93 34.93 35.07 35.24 35.01 34.08 33.03 31.17 29.63 28.41 27.75
44.61 44.42 44.40 44.15 44.22 44.27 44.05 44.24 44.75 42.46 40.92 40.63 39.10 41.20 40.31 38.06 33.16 29.40 28.92 30.90 27.80 29.23 32.85 29.46 31.15 32.61 32.91 36.33 31.89 33.26 31.69 31.06 26.20 31.58 24.11 16.27 24.10 27.71 28.95 28.60 28.60 29.31 30.38 30.49 31.41 30.51 30.58 30.62 29.76 28.46 27.29 26.01 25.47 24.98
44.12 44.14 44.04 44.01 43.76 43.93 43.86 43.98 44.81 44.79 44.58 42.27 37.93 32.61 31.78 27.14 19.90 17.97 20.07 26.11 27.19 29.61 30.20 31.75 32.22 30.49 33.95 35.88 31.83 31.28 29.47 27.56 33.63 22.83 16.92 19.44 25.61 27.12 27.28 27.59 26.91 27.85 27.51 26.85 26.26 26.48 25.95 25.45 26.10 26.01 24.81 25.37 25.29 24.41
43.85 43.74 43.97 43.90 43.70 43.34 42.68 42.30 42.54 40.50 36.30 29.37 26.46 18.01 19.56 18.53 20.57 21.61 22.72 24.95 28.70 28.66 28.67 29.36 31.46 32.59 32.05 30.15 31.66 29.44 28.72 27.36 19.85 15.17 13.03 20.52 24.41 25.85 26.57 26.63 24.84 23.74 24.53 24.39 24.02 24.20 23.85 23.61 23.16 23.53 23.76 23.97 22.91 21.51
43.58 43.07 42.43 42.19 42.89 43.05 41.98 41.42 40.41 34.52 28.68 21.86 21.61 13.63 15.55 20.77 19.08 24.24 23.42 26.00 29.16 29.45 28.76 30.17 32.07 33.08 29.39 27.65 26.15 25.32 20.85 13.14 15.11 11.61 17.35 21.13 24.60 24.80 24.62 24.89 24.15 23.82 23.32 22.94 23.35 22.64 22.49 22.64 22.19 22.08 23.02 23.37 23.10 22.19
43.98 42.28 40.67 42.78 43.33 43.08 42.09 38.50 35.12 34.20 26.89 20.24 20.16 14.24 15.70 11.25 12.20 12.95 13.58 16.74 22.75 27.50 29.37 30.76 27.09 26.30 23.02 21.45 18.32 16.16 13.98 10.63 13.29 18.09 20.49 22.62 22.07 22.05 22.67 24.32 24.54 24.30 23.73 23.52 23.52 23.35 22.97 22.38 21.84 21.76 22.52 22.70 22.41 21.53
43.79 39.50 42.41 43.17 43.54 42.60 40.71 34.29 30.45 26.79 24.76 21.10 15.78 13.68 7.80 7.79 12.32 18.07 15.51 22.13 28.10 27.59 23.22 24.82 18.12 18.50 22.26 16.64 15.10 17.55 12.52 15.37 17.86 19.25 20.30 20.16 19.62 20.76 21.99 22.29 22.10 21.52 21.31 22.98 23.94 24.29 23.78 23.92 23.26 21.45 19.58 21.00 21.49 21.03
40.23 41.45 42.97 43.56 43.07 40.86 34.37 31.56 27.68 25.49 20.91 21.47 16.52 17.18 17.03 15.64 14.73 13.97 22.28 24.52 26.10 26.02 24.06 18.55 21.03 13.21 10.37 10.51 11.36 16.10 16.92 17.99 18.28 17.20 17.60 19.80 19.76 19.20 19.52 18.28 19.52 20.22 19.83 19.67 19.44 19.42 20.25 19.70 19.78 20.19 20.65 20.81 19.96 19.58
41.35 41.75 42.46 42.48 40.09 35.06 29.83 30.62 30.08 21.67 21.90 22.50 21.95 21.94 20.59 20.15 22.15 23.24 23.42 22.69 22.94 22.46 19.78 15.27 10.25 9.97 10.76 14.99 15.77 17.19 17.72 17.27 15.24 15.97 16.76 17.51 18.18 18.03 17.73 17.88 17.83 17.24 17.71 18.16 17.95 16.99 16.80 16.88 17.45 17.70 18.29 18.20 15.85 16.41
42.19 41.88 41.31 41.36 41.49 32.61 29.22 29.45 32.37 25.89 22.46 22.15 22.87 20.00 19.68 19.44 20.81 20.36 20.32 21.31 20.24 18.12 13.44 10.33 10.78 13.29 13.17 15.76 18.95 19.60 19.28 19.48 17.41 14.46 14.37 16.02 17.14 16.50 15.93 16.33 15.56 16.02 15.94 15.96 15.98 16.64 15.35 14.17 14.96 14.74 14.78 14.04 12.27 10.86
40.56 38.58 40.65 39.14 35.98 34.05 31.04 29.58 29.13 26.99 25.50 24.12 24.41 22.78 19.09 20.19 17.29 16.39 16.45 20.38 15.23 13.49 12.37 15.11 14.45 17.11 19.01 19.36 19.88 19.36 19.13 19.07 17.10 16.41 14.99 13.82 16.27 16.36 15.99 15.70 15.58 14.85 13.39 12.51 11.49 11.89 11.80 12.16 11.97 11.79 10.41 9.84 9.40 8.17
34.77 39.36 35.20 34.51 30.35 30.41 28.16 29.65 28.64 28.90 26.78 26.08 25.21 25.17 18.70 14.13 13.83 15.86 18.89 14.38 14.21 15.42 17.21 17.25 18.46 18.90 18.16 17.35 17.90 18.89 18.64 18.51 17.97 16.81 16.43 15.87 13.29 13.37 13.47 13.96 13.27 11.38 11.20 10.62 9.60 7.35 7.94 9.05 10.34 10.78 7.33 4.91 6.01 5.35
36.66 34.50 29.60 28.38 24.24 23.42 21.55 29.47 23.54 27.17 18.84 19.66 21.22 17.28 14.88 12.29 17.43 20.65 11.11 16.75 16.64 19.61 18.83 18.12 18.15 19.29 19.13 20.16 19.76 19.05 18.65 15.94 12.92 12.06 12.04 11.01 10.80 10.41 10.12 11.44 11.82 9.04 8.71 9.30 10.33 7.92 4.27 2.04 2.99 1.60 1.28 1.46 0.97 -2.78
33.64 26.67 22.32 20.06 21.55 17.90 20.64 19.45 25.38 23.30 19.51 17.11 15.77 12.11 16.23 13.52 17.09 10.12 9.91 13.44 17.97 20.61 18.27 17.92 17.05 14.76 14.86 14.15 12.08 13.32 14.97 14.33 12.12 12.42 11.97 9.58 7.38 7.36 8.21 8.49 9.13 9.69 8.44 7.84 5.42 2.82 1.49 -4.20 -4.16 -1.07 -5.33 -6.25 -9.60 -10.87
18.80 17.42 17.74 11.46 17.51 15.80 11.38 11.06 13.05 15.16 9.57 13.62 10.67 10.48 11.43 15.88 6.57 5.44 6.35 12.24 13.20 13.19 12.30 16.03 15.84 14.16 10.55 9.17 9.70 10.63 13.04 11.98 9.18 8.17 9.69 10.51 7.72 6.95 6.29 6.67 6.64 7.56 7.67 0.00 -5.86 -5.11 -8.15 -7.93 -8.51 -6.76 -6.07 -9.95 -4.08 -7.97
10.67 13.26 16.55 13.36 11.41 13.55 12.83 8.46 6.91 7.02 5.98 4.90 11.65 14.68 10.10 4.01 -0.30 2.72 11.01 8.54 6.97 10.01 7.40 2.73 8.71 9.66 9.45 10.24 8.34 7.90 8.65 10.74 9.43 5.90 7.13 8.06 6.89 1.04 -3.29 -4.56 -3.07 2.60 4.43 -4.00 -7.06 -8.78 -8.52 -7.06 -9.25 -8.75 -13.04 -9.42 -11.96 -12.90
7.49 12.03 21.71 23.67 22.52 20.24 12.91 13.34 15.41 8.50 3.26 7.06 8.54 4.37 0.21 -6.52 -5.25 9.04 13.84 13.32 11.62 8.83 11.91 13.03 13.53 11.29 9.45 9.01 9.86 9.38 9.06 8.93 7.94 7.77 8.26 7.19 6.24 4.68 -1.86 -5.90 -5.97 -0.08 1.47 -2.80 -7.12 -10.72 -12.86 -15.76 -15.40 -14.31 -15.58 -16.49 -12.68 -15.40
19.04 15.29 8.18 8.34 10.31 13.96 3.65 2.56 -0.90 0.37 2.91 14.43 7.27 -3.46 -5.43 -3.62 3.24 10.01 9.59 11.44 9.63 13.57 12.78 12.47 12.69 12.15 10.96 10.64 8.41 5.09 4.42 2.98 5.75 6.61 6.62 5.41 2.88 -2.06 -3.40 -4.71 -2.18 4.54 -7.99 -12.33 -13.77 -14.68 -14.13 -14.68 -15.04 -16.31 -14.31 -10.69 -13.41 -12.68
10.17 13.11 11.61 2.81 5.63 7.10 7.71 1.28 2.73 9.71 13.67 11.59 -2.92 -1.99 3.43 12.41 5.76 9.87 11.24 10.28 10.42 10.90 7.76 6.46 0.37 1.87 4.03 3.46 0.18 0.10 -0.43 1.36 -1.31 -4.16 -6.88 -10.87 -9.42 -2.74 -3.98 -8.52 -10.51 -8.51 -5.97 -5.61 0.37 -6.36 -9.27 -10.78 -10.07 -11.70 -13.79 -14.15 -15.32 -20.30
11.30 13.78 6.39 1.22 0.52 3.08 5.60 7.90 2.42 1.52 10.87 7.56 11.13 11.83 10.35 9.99 13.26 11.44 12.64 14.04 7.35 -0.41 -2.03 -0.75 1.02 -0.53 -5.43 -6.35 -11.05 -7.10 -9.81 -15.40 -12.68 -6.62 -8.34 -11.05 -7.81 -5.46 -13.95 -12.68 -11.78 -9.78 -13.59 -15.04 -13.59 -9.80 -3.46 -10.58 -4.38 -7.29 -9.87 -14.92 -19.95 -19.75
16.71 9.97 5.98 4.13 3.07 6.19 4.04 2.02 10.35 8.23 1.12 -0.41 -1.93 -2.22 1.01 5.28 6.64 9.71 7.97 5.68 6.10 1.25 1.70 -3.25 -3.25 -9.96 -3.84 -8.33 -12.50 -14.86 -11.59 -9.97 -14.13 -10.87 -8.69 -9.60 -13.77 -15.58 -14.86 -14.13 -14.86 -13.77 -13.77 -15.76 -16.13 -17.21 -17.40 -18.30 -20.66 -19.39 -18.30 -17.58 -18.85 -20.48
8.08 2.26 3.73 4.85 7.63 9.19 9.97 6.78 -1.62 -2.54 -6.16 -5.26 -6.34 -9.42 -3.62 -5.07 -5.25 -1.99 0.54 -1.86 -1.08 -1.99 -3.98 -4.70 -3.44 -5.97 -11.41 -13.41 -15.94 -15.04 -8.19 -9.62 -12.50 -10.69 -9.78 -13.59 -15.94 -17.21 -15.04 -8.87 -10.69 -14.13 -15.95 -16.85 -15.76 -12.86 -11.78 -14.49 -17.40 -19.39 -19.21 -18.85 -20.84 -20.66
5.89 8.53 4.48 4.93 5.83 4.17 6.96 3.11 1.44 3.69 -0.39 -3.62 -0.74 -0.95 -1.53 -0.55 -4.54 2.35 3.97 0.54 1.42 2.68 -1.30 -5.07 -9.60 -8.15 -7.82 -8.35 -7.07 -10.32 -8.87 -11.23 -12.68 -1.08 -5.97 -7.97 -12.58 -11.59 -18.30 -19.75 -20.11 -19.57 -17.22 -18.48 -19.57 -17.40 -14.86 -12.68 -14.31 -16.49 -18.66 -21.93 -22.47 -22.47
MSLP
994.49 993.71 993.15 992.77 992.53 992.38 992.42 992.64 992.94 993.40 994.03 994.78 995.70 996.73 997.72 998.80 1000.00 1001.34 1001.96 1003.13 1004.36 1004.98 1003.75 1002.79 1002.48 1002.59 1003.83 1004.61 1005.20 1005.58 1006.60 1006.22 1007.19 1007.94 1008.26 1008.06 1007.45 1006.68 1006.66 1006.33 1006.46 1006.74 1007.22 1007.09 1007.05 1006.26 1002.61 999.85 999.35 999.78 1000.14 999.11 998.50 998.47
992.60 991.66 991.18 990.84 990.74 990.61 990.60 990.85 991.08 991.49 992.13 992.85 993.79 994.85 996.10 997.27 998.46 1000.37 1001.59 1002.46 1003.45 1004.51 1004.25 1003.21 1002.04 1001.45 1001.68 1002.24 1003.64 1004.55 1004.90 1005.09 1005.65 1006.32 1007.06 1007.14 1007.26 1006.31 1006.04 1005.76 1005.51 1005.42 1004.31 1005.41 1004.96 1003.86 1001.03 999.24 999.65 999.75 1000.07 999.93 999.66 998.91
991.94 991.45 990.97 990.60 990.21 989.82 989.57 989.53 989.60 989.88 990.36 991.13 992.16 993.41 994.72 996.06 997.38 998.75 1000.50 1001.65 1002.99 1004.04 1004.52 1003.66 1001.71 1001.45 1001.46 1001.82 1002.15 1003.58 1004.39 1004.72 1005.04 1005.12 1005.90 1006.41 1006.51 1005.89 1006.02 1005.24 1004.74 1003.98 1003.59 1003.68 1003.34 1001.66 1000.29 999.70 998.96 998.65 999.28 999.62 999.20 999.11
992.07 991.58 990.92 990.30 989.75 989.23 988.66 988.67 988.57 988.59 988.91 989.69 990.89 992.32 993.68 995.24 996.89 998.64 999.82 1000.79 1001.99 1003.51 1003.60 1002.11 1001.18 1001.68 1001.68 1001.83 1002.21 1003.05 1003.74 1004.36 1005.04 1005.27 1005.83 1006.10 1006.20 1005.21 1005.43 1004.77 1004.11 1003.02 1002.86 1002.58 1002.03 1001.20 1000.34 999.72 999.42 998.85 998.69 998.84 999.00 999.19
992.29 991.78 991.21 990.57 990.04 989.52 988.98 988.44 987.96 987.06 986.68 988.03 989.97 991.70 993.13 994.79 996.61 998.49 999.96 1000.53 1000.94 1001.29 1001.94 1002.26 1001.20 1001.48 1001.74 1002.16 1002.53 1002.75 1003.96 1004.77 1005.54 1005.65 1005.66 1005.88 1005.36 1005.21 1005.05 1004.99 1004.11 1003.19 1002.72 1002.51 1001.37 1000.44 999.81 999.16 998.53 997.86 998.57 998.76 998.91 998.97
992.73 992.32 991.73 991.19 990.65 989.99 989.41 988.74 988.01 987.32 987.48 988.78 990.29 991.75 993.38 994.85 996.80 998.10 999.92 1000.94 1000.89 1001.08 1001.75 1001.64 1001.63 1001.83 1002.28 1002.51 1002.91 1003.60 1004.13 1004.77 1005.06 1005.11 1005.44 1005.13 1004.94 1004.75 1005.40 1005.52 1005.11 1004.83 1003.66 1002.69 1002.61 1001.14 1000.00 998.91 998.19 997.96 998.26 998.84 999.11 999.36
993.40 992.97 992.44 992.05 991.61 991.05 990.59 990.02 989.54 989.33 989.57 990.28 991.40 992.79 994.22 995.80 997.12 997.90 998.52 998.70 1000.55 1001.45 1002.34 1001.76 1001.94 1002.29 1002.49 1003.03 1003.59 1004.17 1004.40 1004.50 1004.55 1004.75 1004.76 1004.88 1004.92 1004.45 1005.95 1006.14 1006.14 1005.47 1005.10 1004.31 1003.57 1001.91 1000.78 1000.12 999.81 999.01 999.02 999.66 999.94 1000.05
994.07 993.72 993.33 993.05 992.74 992.33 991.96 991.68 991.54 991.57 991.72 992.20 992.95 994.22 995.64 996.33 997.39 998.15 998.82 999.07 1000.48 1001.48 1001.30 1001.94 1002.55 1002.90 1003.25 1003.63 1004.14 1004.30 1004.71 1004.87 1004.73 1004.53 1004.22 1004.24 1004.94 1005.23 1006.43 1006.98 1006.80 1006.24 1005.58 1004.63 1004.09 1003.06 1002.46 1001.61 1001.17 1000.47 1000.27 1000.34 1000.37 1000.58
995.00 994.73 994.51 994.34 994.16 993.86 993.69 993.54 993.65 993.87 994.06 994.55 995.44 996.33 997.31 997.96 998.29 998.67 999.43 999.77 999.88 1000.82 1001.66 1002.48 1003.17 1003.87 1003.77 1003.97 1004.14 1004.57 1004.61 1005.22 1004.60 1004.68 1004.24 1004.23 1006.06 1007.29 1008.49 1008.41 1007.83 1007.43 1007.16 1006.07 1005.01 1004.65 1003.49 1002.99 1002.83 1002.41 1002.26 1002.34 1002.34 1002.83
996.10 995.92 995.78 995.56 995.52 995.33 995.26 995.28 995.40 995.79 995.85 996.39 996.63 997.27 997.95 998.36 998.72 998.89 999.66 1000.36 1000.82 1001.04 1001.74 1002.77 1003.22 1004.00 1004.22 1004.45 1004.74 1005.10 1004.87 1004.86 1004.82 1004.41 1004.05 1005.48 1008.11 1009.24 1009.83 1009.50 1008.95 1008.68 1008.34 1007.03 1006.32 1005.79 1005.34 1005.01 1005.02 1005.10 1005.18 1005.19 1004.97 1005.09
997.30 997.09 996.99 996.88 996.77 996.56 996.33 996.23 996.25 996.41 996.46 996.71 997.05 998.08 998.72 998.60 998.53 999.43 1000.89 1001.12 1001.37 1001.91 1002.39 1002.90 1003.13 1003.94 1004.41 1004.51 1004.76 1004.80 1004.57 1004.47 1004.57 1004.35 1004.92 1007.31 1009.34 1010.29 1010.37 1010.08 1009.98 1009.81 1009.21 1008.33 1007.75 1007.69 1007.49 1007.19 1006.95 1007.38 1007.55 1007.40 1007.29 1007.43
998.54 998.41 998.25 998.06 997.82 997.41 997.04 996.69 996.48 996.72 996.92 997.01 997.56 998.76 999.02 999.29 1000.00 1001.10 1002.47 1002.80 1002.79 1003.37 1003.45 1003.39 1003.51 1003.88 1004.46 1004.37 1004.37 1004.60 1004.08 1004.31 1004.58 1004.75 1006.53 1009.58 1011.31 1011.46 1011.34 1011.22 1011.39 1011.15 1010.22 1009.19 1009.10 1009.06 1009.21 1009.02 1008.91 1009.02 1009.02 1009.15 1009.55 1009.87
999.54 999.36 999.14 998.89 998.52 998.12 997.73 997.37 997.16 997.29 997.23 997.52 998.30 999.73 1000.56 1001.75 1002.84 1003.76 1004.36 1004.41 1004.55 1004.74 1004.79 1004.27 1003.98 1004.01 1004.28 1004.29 1004.67 1004.80 1004.55 1004.58 1004.84 1007.26 1010.23 1012.35 1012.66 1012.57 1012.40 1012.31 1012.07 1011.85 1011.46 1011.14 1011.05 1010.82 1011.01 1010.92 1010.68 1010.53 1010.81 1011.02 1011.13 1011.19
1000.15 999.95 999.71 999.40 999.13 998.89 998.58 998.26 997.94 997.96 998.49 1000.14 1001.44 1003.43 1004.53 1005.80 1006.57 1006.95 1006.84 1006.40 1006.06 1005.67 1005.21 1004.85 1004.34 1004.21 1004.43 1004.73 1004.83 1005.13 1005.80 1005.93 1007.91 1010.38 1012.82 1013.75 1013.54 1013.43 1013.25 1013.26 1013.10 1013.38 1012.87 1012.39 1012.38 1012.45 1012.57 1012.48 1012.42 1012.54 1012.53 1012.65 1012.68 1012.97
1000.54 1000.33 1000.11 1000.02 999.62 999.34 999.16 998.87 998.78 999.06 1001.61 1003.87 1005.17 1007.47 1008.66 1009.13 1008.94 1008.44 1007.88 1007.32 1006.77 1006.27 1005.65 1004.92 1004.70 1004.87 1005.43 1005.79 1006.67 1006.89 1008.18 1010.16 1011.86 1013.65 1014.79 1015.12 1014.84 1014.63 1014.56 1014.49 1014.40 1014.26 1013.94 1013.81 1013.97 1014.18 1014.41 1014.22 1014.09 1014.15 1014.31 1014.39 1014.47 1014.70
1000.85 1000.95 1001.04 1000.74 1000.26 999.90 999.58 999.63 1000.00 1001.42 1004.60 1006.96 1008.82 1009.98 1010.33 1010.45 1010.31 1009.58 1009.04 1008.37 1007.55 1006.88 1006.11 1005.76 1005.95 1006.58 1007.79 1008.76 1009.43 1010.61 1011.63 1013.63 1015.08 1015.72 1016.13 1015.95 1015.92 1015.88 1015.79 1015.70 1015.64 1015.51 1015.38 1015.41 1015.45 1015.61 1015.82 1015.80 1015.81 1015.98 1016.01 1016.06 1016.25 1016.44
1000.96 1001.55 1001.58 1001.06 1000.64 1000.43 1000.26 1000.97 1002.58 1005.17 1007.52 1009.25 1011.07 1011.34 1011.54 1011.65 1011.50 1010.82 1009.98 1009.20 1008.23 1007.53 1007.53 1007.64 1008.69 1009.81 1010.55 1011.54 1012.75 1013.74 1014.98 1016.00 1016.57 1016.79 1016.94 1017.24 1017.31 1017.29 1017.21 1017.06 1017.06 1017.00 1016.86 1016.84 1016.84 1017.28 1017.59 1017.62 1017.53 1017.35 1017.43 1018.08 1018.20 1018.52
1001.54 1001.76 1001.63 1001.41 1001.02 1000.94 1001.45 1002.63 1005.08 1007.83 1009.96 1011.19 1011.87 1012.30 1012.34 1012.34 1012.13 1011.39 1010.71 1009.70 1008.69 1008.57 1009.26 1010.70 1011.51 1012.81 1013.98 1014.84 1015.64 1016.43 1017.17 1017.82 1018.30 1018.69 1018.87 1018.86 1018.82 1018.85 1018.81 1018.68 1018.57 1018.48 1018.58 1018.78 1019.07 1019.20 1019.15 1019.24 1019.10 1019.22 1019.44 1019.72 1019.83 1020.18
1001.78 1001.84 1001.70 1001.43 1001.26 1001.45 1002.72 1004.73 1006.00 1009.15 1011.30 1012.16 1012.78 1012.83 1012.87 1012.96 1012.72 1012.10 1011.42 1010.76 1010.38 1010.27 1011.41 1013.65 1015.41 1016.77 1017.48 1017.80 1017.88 1018.28 1018.80 1019.30 1019.85 1020.31 1020.46 1020.53 1020.41 1020.40 1020.44 1020.37 1020.44 1020.52 1020.53 1020.61 1020.76 1021.01 1021.20 1021.21 1021.15 1021.14 1021.18 1021.30 1021.55 1022.03
1001.92 1001.84 1001.67 1001.33 1001.16 1002.10 1004.04 1006.02 1006.97 1009.15 1011.26 1012.86 1013.44 1013.63 1013.68 1013.84 1013.63 1012.86 1012.22 1011.92 1011.83 1012.77 1015.12 1017.29 1018.89 1019.56 1019.63 1019.56 1019.27 1019.45 1019.91 1020.32 1020.62 1021.00 1021.50 1021.82 1021.98 1021.89 1021.97 1022.02 1022.14 1022.25 1022.25 1022.41 1022.49 1022.48 1022.59 1022.75 1022.95 1023.06 1023.13 1023.31 1023.56 1024.15
1002.14 1002.09 1001.89 1001.72 1002.23 1003.09 1004.96 1006.48 1008.06 1009.75 1011.35 1012.13 1012.95 1013.41 1014.46 1014.56 1014.16 1014.03 1013.87 1013.75 1013.87 1016.60 1018.51 1020.04 1020.45 1020.67 1020.70 1020.57 1020.57 1020.65 1020.96 1021.17 1021.55 1021.85 1022.37 1022.77 1023.09 1023.05 1023.17 1023.32 1023.41 1023.47 1023.60 1023.88 1024.02 1024.25 1024.36 1024.55 1024.80 1024.89 1024.97 1025.25 1025.59 1025.92
1002.68 1002.30 1002.64 1002.84 1003.83 1004.97 1006.35 1007.14 1007.95 1009.19 1010.37 1011.76 1012.50 1013.08 1014.19 1015.13 1015.72 1016.12 1016.67 1016.50 1018.84 1020.46 1020.73 1021.10 1021.33 1021.55 1021.65 1021.80 1022.02 1022.14 1022.40 1022.56 1022.89 1023.18 1023.50 1023.70 1023.93 1024.10 1024.30 1024.46 1024.54 1024.80 1025.14 1025.47 1025.72 1026.05 1026.23 1026.31 1026.30 1026.36 1026.54 1026.86 1026.95 1027.28
1002.95 1003.09 1003.75 1004.54 1005.72 1007.06 1008.71 1008.20 1009.01 1009.98 1011.14 1012.40 1013.27 1014.47 1015.58 1016.52 1017.53 1018.01 1019.56 1020.84 1021.80 1022.32 1022.42 1022.52 1022.65 1022.72 1022.75 1023.00 1023.12 1023.34 1023.48 1023.70 1024.06 1024.39 1024.71 1025.01 1025.33 1025.57 1025.73 1025.84 1025.95 1026.19 1026.49 1026.87 1027.04 1027.34 1027.69 1027.70 1027.67 1027.78 1027.95 1028.19 1028.41 1028.84
1003.85 1005.21 1006.11 1007.03 1007.82 1009.44 1009.52 1010.01 1010.36 1011.40 1012.35 1013.51 1014.76 1015.99 1016.55 1017.55 1018.55 1020.24 1021.91 1022.60 1022.89 1022.99 1023.27 1023.43 1023.62 1023.85 1024.09 1024.32 1024.60 1024.73 1024.82 1024.91 1025.19 1025.45 1025.72 1025.99 1026.42 1026.95 1027.11 1027.28 1027.39 1027.49 1027.66 1027.92 1028.27 1028.63 1028.83 1029.02 1029.05 1029.22 1029.39 1029.64 1029.91 1030.26
1005.77 1008.28 1008.76 1009.42 1009.74 1010.74 1011.65 1012.36 1012.88 1013.49 1015.08 1015.33 1016.33 1017.21 1017.66 1018.25 1020.27 1021.97 1023.15 1023.87 1024.12 1024.14 1024.29 1024.24 1024.49 1024.87 1025.25 1025.69 1025.92 1026.02 1026.02 1025.98 1026.22 1026.57 1027.02 1027.07 1027.48 1027.90 1028.30 1028.55 1028.69 1028.73 1028.71 1029.02 1029.66 1029.91 1030.13 1030.24 1030.34 1030.49 1030.67 1030.82 1031.09 1031.30
1008.90 1010.25 1010.31 1011.06 1011.56 1012.18 1013.27 1014.58 1015.13 1015.88 1016.44 1017.41 1018.03 1018.46 1019.06 1020.54 1022.38 1023.49 1024.00 1024.62 1025.07 1025.17 1025.30 1025.29 1025.40 1025.80 1026.24 1026.52 1026.82 1027.01 1027.26 1027.18 1027.27 1027.59 1028.23 1028.22 1028.35 1028.78 1029.30 1029.60 1029.72 1029.96 1029.95 1029.99 1030.49 1030.94 1031.13 1031.16 1031.28 1031.38 1031.51 1031.58 1031.65 1031.78
1010.97 1011.63 1011.71 1012.13 1012.37 1013.11 1014.77 1015.76 1016.47 1017.29 1018.19 1018.94 1019.53 1020.26 1021.16 1023.29 1024.11 1024.49 1024.73 1025.08 1025.62 1025.84 1025.64 1025.61 1025.85 1026.30 1026.88 1027.38 1027.69 1027.86 1027.93 1028.02 1028.20 1028.70 1029.06 1029.21 1029.41 1029.63 1029.95 1030.42 1030.31 1030.63 1030.61 1030.68 1030.77 1031.16 1031.45 1031.64 1031.79 1031.95 1032.09 1032.17 1032.19 1032.27
1012.18 1013.03 1013.71 1014.74 1015.02 1015.63 1016.78 1017.98 1018.87 1019.67 1020.00 1020.01 1020.69 1022.65 1023.46 1024.01 1024.85 1024.98 1025.18 1025.63 1025.77 1026.07 1026.36 1026.63 1026.76 1027.12 1027.68 1028.19 1028.52 1028.95 1029.18 1029.19 1029.40 1029.65 1029.95 1030.31 1030.46 1030.54 1030.64 1030.81 1030.59 1030.24 1031.12 1031.45 1031.57 1031.05 1030.96 1031.35 1031.90 1032.28 1032.48 1032.64 1032.71 1032.15
1013.62 1014.45 1015.28 1017.00 1017.31 1018.30 1019.42 1020.26 1020.74 1020.94 1020.98 1021.03 1022.51 1023.66 1024.18 1024.60 1025.07 1025.38 1025.82 1025.98 1026.23 1026.70 1027.33 1027.80 1028.39 1028.52 1028.92 1029.29 1029.64 1029.79 1029.82 1030.22 1030.56 1030.96 1031.21 1031.72 1031.63 1031.65 1031.41 1031.48 1031.53 1031.48 1031.17 1031.50 1030.64 1031.06 1030.70 1030.66 1030.61 1031.35 1031.93 1032.32 1032.27 1032.25
1014.99 1015.51 1016.99 1018.61 1019.92 1021.05 1021.29 1021.28 1021.75 1021.86 1021.79 1022.25 1023.05 1024.48 1025.26 1025.84 1025.86 1025.71 1026.20 1026.64 1027.23 1027.69 1028.12 1028.33 1028.78 1029.07 1030.02 1030.53 1031.16 1031.15 1030.88 1030.85 1031.06 1031.08 1031.63 1032.15 1032.03 1032.00 1031.86 1031.93 1032.03 1032.12 1032.04 1032.19 1031.51 1031.15 1031.04 1031.57 1030.57 1031.13 1032.16 1032.52 1032.83 1033.27
1015.34 1016.67 1018.49 1019.99 1021.44 1022.34 1022.36 1022.42 1022.33 1022.71 1023.48 1024.18 1024.88 1025.80 1026.63 1027.03 1026.97 1026.93 1027.05 1027.35 1027.72 1027.99 1028.52 1029.31 1029.77 1029.78 1030.31 1031.12 1031.39 1031.42 1031.83 1031.41 1031.23 1031.10 1031.20 1031.54 1031.96 1032.16 1032.14 1032.23 1032.13 1032.04 1032.14 1032.50 1032.17 1032.02 1032.04 1032.33 1032.72 1032.62 1032.94 1033.15 1033.29 1033.44
1016.91 1018.15 1019.38 1021.00 1022.35 1022.49 1022.52 1023.16 1023.95 1024.52 1025.42 1026.02 1027.04 1026.94 1027.53 1027.96 1028.32 1027.94 1027.80 1028.07 1028.27 1028.91 1029.07 1029.41 1030.29 1030.61 1030.48 1030.35 1030.49 1030.67 1030.81 1031.29 1031.63 1031.93 1032.07 1032.16 1032.73 1032.62 1032.32 1031.77 1031.88 1032.18 1032.83 1032.68 1032.46 1032.34 1032.36 1032.94 1033.01 1033.02 1033.12 1033.22 1033.32 1033.40
1018.41 1018.94 1019.75 1021.13 1022.40 1022.89 1023.08 1023.62 1024.53 1025.64 1026.24 1027.39 1027.62 1027.73 1028.12 1028.27 1028.62 1028.45 1028.00 1027.98 1028.04 1028.37 1028.83 1029.57 1029.81 1030.16 1030.42 1030.43 1030.51 1030.89 1031.10 1031.46 1031.68 1031.20 1031.58 1031.81 1032.09 1032.13 1032.51 1032.60 1032.67 1032.77 1032.97 1032.78 1032.67 1032.52 1032.70 1032.98 1033.18 1033.29 1033.35 1033.38 1033.38 1033.42
Wind_Speed
28 29 28 28 26 27 27 27 28 29 31 31 31 31 32 31 31 20 10 14 11 1 5 6 12 10 11 12 9 4 4 4 2 6 5 5 4 7 5 5 6 7 6 3 3 4 8 3 5 3 5 2 6 7
29 26 22 18 18 18 18 22 24 25 28 29 30 32 32 34 36 30 8 11 10 4 4 8 5 7 20 18 12 5 6 5 7 4 3 2 1 1 7 9 5 5 6 7 10 10 10 2 8 5 1 2 5 4
13 10 10 10 10 12 14 16 18 20 23 27 28 29 30 30 32 28 6 11 7 5 6 7 12 4 5 6 6 6 1 2 2 3 5 2 3 5 4 6 7 5 6 5 2 7 9 5 3 7 6 8 5 1
8 12 12 10 11 9 6 7 10 14 19 25 28 28 30 30 30 25 9 10 9 5 4 4 6 12 5 8 7 4 5 4 2 1 2 4 3 4 4 6 8 8 6 13 6 5 3 3 5 7 7 3 2 4
9 12 14 11 10 9 8 5 7 9 17 26 26 28 29 29 31 15 9 9 5 5 4 2 3 2 7 7 9 9 5 4 2 2 2 2 3 2 2 2 5 2 5 5 6 7 6 6 3 5 5 7 5 3
11 13 14 15 13 13 12 10 17 18 25 24 27 28 28 31 24 11 5 4 8 2 2 4 1 4 4 7 8 8 6 4 5 5 4 2 5 4 2 3 6 10 13 10 6 9 7 8 7 5 10 4 2 2
13 14 14 16 17 18 20 20 22 23 24 23 26 30 32 26 9 5 5 9 13 7 4 3 3 3 6 4 2 2 1 2 3 3 4 4 3 4 0 4 11 12 13 9 14 11 5 7 6 3 8 6 5 3
16 14 17 19 21 20 21 23 25 27 30 33 35 33 23 15 8 4 5 19 12 5 3 4 2 4 4 3 3 3 3 1 1 3 1 4 3 1 3 11 12 14 15 9 19 11 5 7 8 5 5 3 7 8
21 21 21 22 22 24 26 25 27 28 29 32 29 23 9 4 2 3 19 12 1 2 4 3 5 3 3 2 2 2 2 2 2 3 3 4 2 3 9 12 12 14 13 14 14 10 12 13 13 14 10 10 8 8
24 24 25 24 22 20 20 19 18 23 26 24 7 3 3 4 2 7 5 3 2 1 3 3 1 3 3 1 1 1 1 4 4 5 3 4 4 3 9 8 10 12 12 12 8 11 12 12 11 12 13 10 10 10
19 20 19 17 16 14 14 13 12 11 5 3 4 5 1 4 3 4 3 3 3 4 2 2 3 4 2 4 3 3 2 1 3 4 5 4 3 5 9 9 10 12 11 8 9 9 9 8 8 8 9 12 12 13
14 14 13 12 12 10 10 12 10 4 1 4 7 3 0 3 4 7 3 2 4 3 4 1 2 3 2 1 3 2 3 2 3 1 6 4 4 8 8 9 10 9 10 13 12 11 11 11 10 10 11 13 13 12
12 12 12 13 14 14 12 11 10 5 2 3 4 5 4 5 11 6 3 3 3 4 4 4 1 3 2 0 2 2 2 1 3 6 5 3 6 7 8 8 10 12 12 13 14 14 14 15 15 13 12 12 13 15
10 13 14 13 13 16 16 13 11 7 6 6 6 9 6 6 5 4 3 2 2 2 5 2 2 1 1 2 1 3 3 5 5 4 3 4 8 8 8 9 10 11 12 14 14 14 15 15 15 15 14 12 14 16
13 14 13 15 15 14 14 14 14 6 6 7 7 7 6 3 2 3 3 2 3 4 4 1 1 3 4 4 5 5 5 6 5 3 2 5 7 8 9 9 9 10 11 13 13 13 13 14 15 16 15 14 15 15
8 7 8 16 16 16 8 9 8 5 6 6 8 5 4 4 5 5 4 3 3 6 2 1 3 4 5 4 5 7 4 5 3 3 3 5 9 10 10 9 10 11 12 12 13 14 14 14 15 15 15 15 15 16
5 3 7 13 16 10 11 6 5 8 6 6 4 2 0 1 2 3 2 4 4 3 3 3 6 6 4 5 4 5 4 3 3 5 6 9 9 9 10 11 12 13 13 12 12 12 12 12 13 15 17 14 15 15
3 1 5 10 9 3 4 5 6 7 8 4 4 3 3 2 3 3 5 7 5 3 3 5 4 8 5 4 3 4 5 6 7 8 8 8 11 12 11 13 13 13 14 14 14 14 14 13 12 10 13 12 13 13
2 1 7 9 6 2 5 6 5 7 6 3 3 5 3 3 7 6 5 6 6 6 6 5 7 5 4 4 4 7 6 5 7 6 8 12 12 12 12 12 13 14 14 14 13 9 10 13 11 9 9 9 10 9
3 3 9 9 2 4 6 4 4 6 3 4 4 8 7 6 6 8 10 8 7 6 8 7 5 3 2 4 4 6 6 6 6 8 8 7 7 11 11 9 8 9 9 11 11 11 9 10 9 9 9 9 9 9
5 5 7 6 4 6 5 3 5 5 5 4 5 6 7 9 14 14 11 7 9 7 6 5 5 6 7 7 6 7 7 7 6 5 6 7 6 7 7 7 8 8 8 7 8 9 10 8 7 7 8 8 8 8
3 7 3 5 5 5 5 5 5 4 4 4 3 3 3 3 4 9 8 11 7 6 4 5 6 6 8 9 8 8 8 10 9 8 9 8 7 7 7 6 7 8 8 7 7 6 6 6 5 6 7 6 7 7
5 5 4 5 7 7 1 2 5 3 5 2 4 4 4 4 3 3 6 5 4 4 5 6 9 10 9 9 11 10 8 8 6 6 6 6 7 7 7 7 6 6 6 6 5 6 5 5 7 6 5 5 6 5
6 6 5 4 6 2 3 5 3 4 4 4 4 4 3 3 3 5 5 3 3 4 5 6 5 6 7 10 8 6 6 6 7 6 5 6 6 6 6 6 6 6 4 4 5 4 5 5 5 6 5 6 5 4
10 9 6 6 5 7 6 5 5 6 5 5 5 5 3 4 5 4 3 2 3 3 3 5 6 6 5 4 4 5 7 5 6 7 6 4 5 5 6 6 7 6 4 5 4 4 3 4 5 5 5 5 7 5
9 5 5 2 3 6 2 4 3 3 4 4 3 1 4 5 6 3 2 2 1 2 1 3 4 5 5 4 3 3 3 3 5 6 5 4 3 4 3 3 3 4 5 2 4 5 4 3 3 6 4 4 5 5
6 5 4 4 2 4 5 4 4 6 5 4 1 4 5 6 2 2 2 2 2 2 2 3 5 5 5 4 4 4 4 5 5 6 4 5 5 4 4 4 3 1 1 4 4 5 5 4 4 3 2 3 2 2
4 4 5 6 6 5 6 5 5 3 1 3 5 5 5 5 3 1 2 2 3 5 6 6 6 6 6 5 3 3 4 3 6 6 6 5 4 3 3 3 2 4 3 3 4 4 4 5 4 3 3 2 1 1
4 2 5 6 6 7 6 3 2 1 2 2 5 3 2 3 2 3 3 3 3 5 5 6 3 4 5 5 5 4 3 3 4 2 1 1 2 3 3 2 3 3 1 1 1 3 4 3 4 4 4 3 3 1
2 3 6 5 6 5 4 3 2 3 3 3 5 6 5 4 4 1 3 4 3 3 4 4 3 4 3 4 2 4 3 2 3 5 5 4 5 2 1 2 2 2 2 3 3 3 6 5 6 4 3 4 3 3
3 4 6 5 5 1 2 1 7 7 5 5 4 5 4 3 4 4 3 2 4 4 5 4 3 1 5 3 3 3 1 3 3 4 4 3 3 2 1 2 1 1 3 3 3 1 1 2 2 2 3 2 3 2
4 4 5 6 3 2 3 2 2 4 2 4 3 3 4 5 2 3 3 3 3 2 2 4 5 1 2 2 2 1 4 4 3 3 6 4 3 1 1 2 2 2 3 3 3 2 1 2 2 2 1 3 4 3
4 6 5 5 4 2 3 4 4 3 4 3 1 2 2 4 4 4 3 1 4 5 4 4 3 4 5 5 5 3 4 3 5 5 5 4 4 3 2 2 2 3 4 3 3 2 4 2 1 1 3 3 3 3
Wind_Direction
287 279 274 270 262 257 251 244 240 233 229 223 218 215 211 207 203 193 193 176 180 203 285 241 183 161 176 196 191 194 107 251 97 175 169 216 191 198 165 184 176 167 164 149 126 288 263 220 17 121 289 286 55 26
290 284 276 276 260 258 238 239 234 227 223 220 215 210 209 209 198 189 186 173 173 186 295 299 271 189 190 191 186 173 180 167 205 149 195 125 233 57 141 230 200 233 165 193 170 214 244 172 145 152 313 328 328 16
334 349 343 319 291 270 253 244 238 230 222 212 205 199 196 195 195 182 145 148 152 168 265 279 229 191 132 147 148 139 224 199 202 185 168 166 218 135 212 238 219 249 178 210 146 246 246 266 280 162 160 253 254 349
351 344 341 341 343 348 293 271 252 233 223 209 198 194 188 183 180 170 161 159 144 130 211 266 200 191 175 138 111 104 118 71 344 194 141 147 172 160 213 224 216 217 192 226 244 262 298 300 218 259 263 279 282 84
1 4 357 11 19 34 27 37 319 258 217 181 175 177 172 170 168 147 153 174 159 150 153 181 113 127 133 156 152 109 119 103 241 248 76 212 201 75 333 19 274 235 237 184 223 214 186 219 279 263 206 210 162 140
21 27 22 36 49 51 51 50 57 83 122 132 148 151 157 148 139 132 120 178 198 119 333 158 150 117 124 117 119 141 183 162 203 149 199 148 274 150 149 235 48 2 1 20 342 316 234 232 243 231 202 226 86 24
46 48 43 60 60 59 59 66 74 84 101 128 136 142 121 120 115 134 174 159 160 106 298 91 92 113 114 102 89 122 213 206 159 207 182 161 224 161 257 227 355 354 347 357 345 341 13 322 296 74 105 126 151 183
56 68 61 68 67 69 74 74 80 85 91 95 108 110 106 90 81 73 111 127 128 164 214 110 88 95 18 124 133 174 138 140 276 230 288 140 33 18 208 358 343 353 342 7 347 345 347 358 5 39 60 54 51 33
61 73 69 75 81 76 72 79 82 90 99 98 95 100 78 44 29 84 127 128 199 104 127 97 124 156 344 81 114 40 121 125 245 196 219 114 111 52 354 341 346 355 349 340 331 355 5 21 14 25 25 17 57 39
66 71 68 60 64 59 54 57 65 93 106 128 155 124 76 48 177 177 29 33 119 14 55 97 133 110 94 53 92 86 182 205 184 226 119 81 86 70 358 345 349 343 336 359 358 3 359 14 23 25 26 25 45 61
62 61 55 46 39 31 23 17 18 11 131 23 32 43 131 282 56 58 85 39 360 35 40 107 110 133 226 120 166 189 212 218 155 224 114 87 84 11 348 5 0 343 339 16 20 24 23 28 36 33 38 47 50 59
67 56 46 35 24 12 0 357 3 40 23 140 113 110 99 41 60 83 64 27 47 43 18 59 183 132 144 142 100 256 233 134 179 96 73 67 36 2 8 23 13 7 16 34 38 46 38 46 55 63 61 63 65 68
53 46 43 33 26 26 33 32 36 56 59 35 57 56 36 337 48 55 60 30 53 3 4 345 7 140 101 125 128 240 270 180 73 52 71 33 344 7 27 29 33 28 40 53 54 57 59 58 54 59 68 65 71 70
66 56 33 24 33 33 29 33 37 51 50 54 40 33 51 19 47 25 2 358 337 336 325 312 262 104 102 124 215 229 43 29 64 72 73 348 9 24 37 39 45 37 41 50 51 52 55 58 59 57 58 63 72 71
59 35 30 22 21 23 30 33 38 53 54 52 34 41 46 359 331 315 284 340 354 314 313 319 122 48 19 47 17 29 52 62 44 65 69 356 26 44 48 47 51 54 53 56 56 58 57 62 64 63 57 61 65 69
44 63 2 358 355 4 37 28 30 59 57 59 43 21 323 39 329 351 350 327 323 323 269 314 52 75 55 33 40 18 57 44 50 53 28 30 49 45 43 51 61 62 61 63 62 62 61 62 65 68 63 59 62 64
42 68 353 343 346 12 40 69 48 50 54 45 21 4 89 67 264 298 334 311 297 306 46 45 49 34 61 53 46 28 43 74 53 60 46 43 46 44 52 55 54 54 50 50 58 61 65 67 69 68 67 61 65 64
62 63 355 337 345 12 43 55 79 68 60 28 62 345 9 335 312 326 341 343 351 39 39 51 53 39 33 49 27 63 68 69 57 51 37 44 53 50 49 52 50 53 55 54 52 49 49 51 55 60 66 66 68 63
151 349 332 332 340 75 72 43 64 81 52 59 25 19 15 10 17 3 19 9 38 40 72 48 51 36 29 20 52 87 74 71 77 65 60 51 50 54 53 54 56 56 55 55 56 56 55 50 50 52 52 61 63 57
357 356 333 326 32 73 73 66 83 94 83 121 102 62 47 31 24 36 37 31 46 59 50 49 46 31 42 27 56 91 92 94 95 83 66 55 52 59 54 57 55 55 58 58 53 54 58 54 47 48 54 58 66 61
358 332 358 21 36 61 82 92 79 108 128 106 154 107 96 58 46 39 37 9 49 42 67 72 78 63 53 58 63 74 74 82 83 86 101 93 71 70 69 63 61 59 60 55 54 51 49 55 56 55 61 64 67 68
321 0 43 17 71 56 61 10 97 125 89 136 148 61 71 58 27 35 37 37 60 35 41 56 61 81 74 66 64 63 78 82 79 73 64 68 70 67 61 56 68 69 62 59 58 56 48 42 47 60 67 62 64 65
19 32 35 38 68 62 273 37 72 50 85 66 52 52 38 50 65 43 64 33 70 46 71 69 64 57 69 77 75 69 69 82 78 75 75 71 66 60 58 50 58 69 74 59 60 65 58 35 47 57 53 57 73 61
35 51 44 60 67 95 28 29 58 66 55 63 72 72 55 113 98 65 65 41 34 126 121 102 91 82 63 53 47 49 63 81 75 58 64 86 79 61 61 60 53 48 53 73 71 66 59 54 46 59 54 66 54 77
69 344 67 10 3 66 51 28 22 51 57 44 63 25 355 61 70 74 104 89 16 32 44 79 92 88 96 82 53 41 37 63 80 78 33 79 96 86 76 67 55 36 24 69 51 70 36 60 54 65 64 71 77 65
70 315 59 79 341 86 110 80 83 116 100 62 82 85 53 69 64 66 80 143 26 11 44 140 121 99 69 64 82 50 21 49 83 79 40 32 64 119 120 95 64 41 15 92 110 91 75 69 83 81 59 57 73 83
67 15 23 28 31 77 66 53 54 71 67 80 33 44 70 70 93 108 92 65 99 311 34 80 103 103 109 97 76 52 53 58 73 91 88 65 58 60 122 128 118 233 6 83 88 113 122 108 89 81 62 18 35 134
63 51 74 321 55 24 93 59 54 64 42 348 64 50 106 148 162 115 136 137 123 94 80 69 70 83 86 76 71 77 62 70 85 87 81 52 33 38 65 49 47 102 83 98 120 109 108 125 126 121 101 109 327 318
51 40 75 41 47 42 39 86 99 37 334 71 103 94 96 66 177 105 141 128 105 106 103 103 28 75 77 68 50 38 43 126 124 132 143 187 0 328 350 47 36 26 47 32 3 150 162 156 179 179 172 175 214 182
33 69 88 59 62 46 350 52 48 313 34 95 100 98 64 31 8 46 86 118 105 137 172 157 160 112 139 113 79 17 5 57 146 143 153 186 209 222 127 95 55 17 73 76 64 354 13 29 26 38 34 20 17 18
92 73 71 64 84 339 201 175 76 61 47 47 39 85 113 132 2 3 50 77 110 104 96 86 57 34 124 140 136 114 350 313 25 79 108 113 130 135 170 229 203 126 97 86 77 89 68 46 68 76 70 19 311 308
43 83 118 100 113 272 16 43 88 84 23 57 4 45 18 56 58 290 295 86 64 88 163 133 119 219 209 139 132 172 138 135 145 134 122 117 118 170 28 47 58 83 75 60 47 51 173 188 185 185 235 296 301 293
65 69 63 91 86 153 260 90 42 70 36 56 5 148 166 134 172 235 306 72 161 167 166 159 155 146 162 151 153 158 140 147 158 133 121 123 132 122 92 68 75 79 84 70 40 47 41 43 44 310 305 306 302 291